{"data":{"norad_id":57469,"intl_designator":"2023-107N","name":"STARLINK-30171","alt_names":[],"object_type":"PAYLOAD","status":"ACTIVE","operator":null,"country":"US","launch_date":"2023-07-28","launch_site_code":"AFETR","launch_vehicle":null,"mission":null,"orbit_class":"UNKNOWN","rcs_meters":null,"size_class":null,"mass_kg":null,"dimensions":null,"purposes":["comms"],"wikipedia_slug":null,"has_3d_model":false,"image_url":null,"decayed_at":null,"tle_current":{"epoch":"2026-09-19T04:56:30.921216Z","epoch_age_seconds":239847,"freshness":"STALE","line1":"1 57469U 23107N   26262.20591344  .00001218  00000+0  53774-4 0  9991","line2":"2 57469  43.0037 326.5759 0001200 266.6989  93.3726 15.27584034174704","mean_motion":15.27584034,"eccentricity":0.00012,"inclination_deg":43.0037,"raan_deg":326.5759,"arg_perigee_deg":266.6989,"mean_anomaly_deg":93.3726,"bstar":5.3774e-5,"rev_number":17470,"period_min":94.266499776732,"perigee_km":482.21367593699,"apogee_km":483.86035770103,"semimajor_km":6861.174016819,"source":"CELESTRAK","updated_at":"2026-09-21T09:00:33.630642Z"}}}